Fallon, NV

2:52 PM PST on February 13, 2016 (GMT -0800)
Fallon Naval Air Station

Weather History for KNFL - May, 2013

Change the Weather History Date:

Tuesday, May 7, 2013

  Actual Average Record
Temperature  
Mean Temperature 55 °F -  
Max Temperature 62 °F 71 °F 86 °F (1969)
Min Temperature 48 °F 38 °F 26 °F (1984)
Degree Days  
Heating Degree Days 10    
Growing Degree Days 5 (Base 50)    
Moisture  
Dew Point 42 °F    
Average Humidity 66    
Maximum Humidity 83    
Minimum Humidity 43    
Precipitation  
Precipitation 0.02 in - - ()
Sea Level Pressure  
Sea Level Pressure 29.88 in    
Wind  
Wind Speed 10 mph (West)    
Max Wind Speed 16 mph    
Max Gust Speed 22 mph    
Visibility 10 miles    
Events Rain    
Averages and records for this station are not official NWS values.
T = Trace of Precipitation, MM = Missing Value Source: NWS Daily Summary

Daily Weather History Graph

Daily Weather History Graph

Search for Another Location

Airport or City:

Trip Planner

Search our weather history database for the weather conditions in past years. The results will help you decide how hot, cold, wet, or windy it might be!

Date:

Astronomy

May. 07, 2013 Rise Set
Actual Time 5:48 AM PDT 7:54 PM PDT
Civil Twilight 5:19 AM PDT 8:24 PM PDT
Nautical Twilight 4:42 AM PDT 9:00 PM PDT
Astronomical Twilight 4:03 AM PDT 9:40 PM PDT
Moon 4:24 AM PDT (5/7) 5:59 PM PDT (5/7)
Length of Visible Light 15h 05m
Length of Day
14h 05m
Waning Crescent, 5% of the Moon is Illuminated
May 7
Waning Crescent
May 9
New
May 17
First Quarter
May 24
Full
May 31
Last Quarter

Hourly Weather History & Observations

Time (PDT) Temp. Dew Point Humidity Pressure Visibility Wind Dir Wind Speed Gust Speed Precip Events Conditions
12:56 AM 52.0 °F 37.9 °F 59% 29.84 in 10.0 mi West 13.8 mph 21.9 mph N/A   Overcast
1:56 AM 50.0 °F 39.9 °F 68% 29.84 in 10.0 mi West 11.5 mph - N/A   Mostly Cloudy
2:56 AM 50.0 °F 41.0 °F 71% 29.84 in 10.0 mi West 10.4 mph - N/A   Overcast
3:56 AM 48.0 °F 43.0 °F 83% 29.84 in 10.0 mi West 11.5 mph - 0.00 in Rain Light Rain
4:56 AM 48.0 °F 42.1 °F 80% 29.84 in 10.0 mi West 6.9 mph - 0.01 in   Overcast
5:56 AM 48.0 °F 41.0 °F 77% 29.86 in 10.0 mi West 4.6 mph - 0.00 in   Overcast
6:21 AM 48.2 °F 41.0 °F 76% 29.94 in 10.0 mi West 5.8 mph - 0.00 in Rain Light Rain
6:56 AM 48.0 °F 39.9 °F 74% 29.87 in 10.0 mi WSW 3.5 mph - 0.00 in Rain Light Rain
7:56 AM 48.0 °F 42.1 °F 80% 29.88 in 10.0 mi SW 6.9 mph - 0.01 in Rain Light Rain
8:35 AM 50.0 °F 41.0 °F 71% 29.96 in 10.0 mi West 4.6 mph - 0.00 in   Mostly Cloudy
8:56 AM 51.1 °F 39.9 °F 66% 29.88 in 10.0 mi WNW 6.9 mph - 0.00 in   Mostly Cloudy
9:56 AM 53.1 °F 39.9 °F 61% 29.88 in 10.0 mi SSE 4.6 mph - N/A   Mostly Cloudy
10:56 AM 54.0 °F 44.1 °F 69% 29.88 in 10.0 mi SSE 11.5 mph - N/A   Mostly Cloudy
11:56 AM 57.9 °F 43.0 °F 58% 29.87 in 10.0 mi South 6.9 mph - N/A   Mostly Cloudy
12:56 PM 59.0 °F 39.0 °F 48% 29.86 in 10.0 mi Variable 5.8 mph - N/A   Mostly Cloudy
1:56 PM 62.1 °F 39.0 °F 43% 29.85 in 10.0 mi NW 10.4 mph - N/A   Overcast
2:56 PM 61.0 °F 39.0 °F 44% 29.84 in 10.0 mi WNW 11.5 mph - N/A   Overcast
3:56 PM 60.1 °F 39.0 °F 46% 29.84 in 10.0 mi North 10.4 mph 19.6 mph N/A   Overcast
4:26 PM 57.2 °F 42.8 °F 59% 29.92 in 10.0 mi North 16.1 mph 20.7 mph 0.00 in Rain Light Rain
4:46 PM 57.2 °F 39.2 °F 51% 29.92 in 10.0 mi WNW 13.8 mph - 0.00 in   Overcast
4:56 PM 57.9 °F 39.9 °F 51% 29.85 in 10.0 mi NW 15.0 mph - 0.00 in   Overcast
5:56 PM 57.0 °F 39.9 °F 53% 29.86 in 10.0 mi NW 11.5 mph - N/A   Overcast
6:56 PM 54.0 °F 43.0 °F 66% 29.86 in 10.0 mi WNW 15.0 mph - N/A   Mostly Cloudy
7:56 PM 52.0 °F 44.1 °F 74% 29.88 in 10.0 mi West 12.7 mph - N/A   Mostly Cloudy
8:56 PM 51.1 °F 44.1 °F 77% 29.89 in 10.0 mi West 11.5 mph - N/A   Mostly Cloudy
9:56 PM 50.0 °F 45.0 °F 83% 29.91 in 10.0 mi WSW 8.1 mph - N/A   Overcast
10:56 PM 51.1 °F 45.0 °F 80% 29.91 in 10.0 mi SW 6.9 mph - N/A   Overcast
11:21 PM 51.8 °F 44.6 °F 76% 30.00 in 10.0 mi SW 8.1 mph - N/A   Overcast
11:56 PM 51.1 °F 46.0 °F 83% 29.92 in 10.0 mi WSW 11.5 mph - N/A   Overcast